Hourly Data Report for June 27, 2021

WRIGLEY A
NORTHWEST TERRITORIES
Current Station Operator: NAVCAN

63°12'35.000" N
123°26'12.000" W
149.70 m
2204005
YWY

Download Data

Hourly Data (June 2021)
Hourly Data Report for June 27, 2021
TIME
LST
Temp Definition
°C
Dew Point Definition
°C
Rel Hum Definition
%
Precip. Amount Definition
mm

Wind Dir Definition
10's deg

Wind Spd Definition
km/h
Visibility Definition
km
Stn Press Definition
kPa
Hmdx Definition


Wind Chill Definition


Weather Definition


00:00 25.4 10.5 39 LegendMM 14 12 LegendMM 99.68 27   LegendNANA
01:00 24.5 10.6 41 LegendMM 14 10 LegendMM 99.64 26   LegendNANA
02:00 24.1 10.8 42 LegendMM 13 9 LegendMM 99.60 26   LegendNANA
03:00 23.9 10.8 43 LegendMM 14 13 LegendMM 99.55 26   LegendNANA
04:00 23.5 10.8 44 LegendMM 13 12 LegendMM 99.50 25   LegendNANA
05:00 22.5 11.1 48 LegendMM 13 9 LegendMM 99.48     LegendNANA
06:00 22.1 11.6 51 LegendMM 12 9 LegendMM 99.46     LegendNANA
07:00 21.8 12.0 53 LegendMM 13 11 LegendMM 99.42     LegendNANA
08:00 20.4 12.4 60 LegendMM 15 12 LegendMM 99.42     LegendNANA
09:00 20.7 12.6 59 LegendMM 16 7 LegendMM 99.42     LegendNANA
10:00 22.3 13.5 57 LegendMM 17 7 LegendMM 99.42 25   LegendNANA
11:00 24.7 13.1 48 LegendMM 27 9 LegendMM 99.48 28   LegendNANA
12:00 27.6 12.6 39 LegendMM 34 15 LegendMM 99.48 30   LegendNANA
13:00 28.4 14.4 42 LegendMM 30 18 LegendMM 99.50 32   LegendNANA
14:00 28.8 14.3 40 LegendMM 31 17 LegendMM 99.48 32   LegendNANA
15:00 29.8 14.2 38 LegendMM 31 22 LegendMM 99.51 33   LegendNANA
16:00 29.6 13.8 37 LegendMM 34 13 LegendMM 99.59 33   LegendNANA
17:00 27.9 13.4 40 LegendMM 34 12 LegendMM 99.63 31   LegendNANA
18:00 28.1 13.2 39 LegendMM 35 16 LegendMM 99.69 31   LegendNANA
19:00 25.8 12.1 42 LegendMM 32 10 LegendMM 99.76 28   LegendNANA
20:00 25.8 12.6 44 LegendMM 34 8 LegendMM 99.77 28   LegendNANA
21:00 22.5 13.1 55 LegendMM 30 13 LegendMM 99.81 25   LegendNANA
22:00 22.0 13.0 56 LegendMM 30 9 LegendMM 99.83 25   LegendNANA
23:00 22.7 12.3 51 LegendMM 33 4 LegendMM 99.89 25   LegendNANA

Notes on Data Quality.

Legend

  • E = Estimated
  • M = Missing
  • NA = Not Available*
  • [empty] = Indicates an unobserved value
Date modified: